OBJECT F, 44884

Orbit data source: Space-Track

You're viewing an Uncataloged Satellite

Recently launched and/or uncataloged satellites may have evolving metadata. Metadata may include but not limited to: Owner, Maufacturer, Bus, Motor, and Mission.

OBJECT F, 44884 is a satellite in SSO that was launched on Fri, 20 Dec 2019 UTC via a CHANG ZHENG 4B launch vehicle from the Taiyaun Space Center, China (TSC). Unknown objects in Earth's orbit typically refer to objects detected orbiting the Earth but have not yet been identified or cataloged. These objects could be anything from previously untracked satellites, spent rocket stages, debris from satellite collisions, or even natural meteoroids temporarily captured by Earth's gravity.

Loading next visibility...
Identifier
44884, 2019-093F
Orbit
SSO
Country
Flag of TBDTBD
Related business
None
Manufacturer
Unknown
Mission
Operational Commercial Communications
Bus & Motor
Unknown
Mass
Unknown
Launch date (UTC)
2019-12-20 (6 years ago)
Launch vehicle
CHANG ZHENG 4B
Launch site
Taiyaun Space Center, China (TSC)
Object type
Unknown
Shape & HBR
Box, Unknown HBR
Radar Cross Section
0.195 m², Medium (>0.1 m² and < 1m²)

Expand to show TLE details & history
Last TLE update: 7 hours ago

TLE from 7 hours ago
0 OBJECT F
1 44884U 19093F   25311.30721642  .00009054  00000-0  77127-3 0  9992
2 44884  97.8026  36.0704 0010580  69.9327 290.3033 14.97959089319174
Epoch: 2025-11-07T07:22Z
TLE epoch observation values (Epoch: 2025-11-07T07:22:23.498Z)
Latitude
-0.00002°
Longitude
-121.28057°
Altitude
573.706 km
Speed
7.575 km/s
True Right ascension
02h 24m 16s
True Declination
0° 00' 00"
Sunlit
Object was in full shadow at epoch
Visualization orbit readout
Latitude
Unknown
Longitude
Unknown
Altitude
Unknown
Speed
Unknown
Apparent Right ascension
Unknown
Apparent Declination
Unknown
Sunlit
N/A
Visualization observer readout
Local Sidereal Time
10:09:10
Azimuth
Unknown
Elevation
Unknown
Doppler factor
Unknown
Orbital elements
Apogee altitude
577.567 km
Perigee altitude
562.864 km
Semi-major axis
6,948.353 km
Eccentricity
0.00106
Inclination
97.8026°
RAAN
36.0704°
Arg. of periapsis
69.9327°
True anomaly
290.18954°
Mean anomaly
290.3033°
Eccentric anomaly
290.24643°
Mean motion
3.74732 °/min
Orbital period
96.07 mins
BSTAR
0.00077127
Loading maneuver chart data...
Computing Atmospheric mass density...
Loading historical data...
Loading historical data...
Loading historical data...
Loading historical data...
Loading historical data...
Loading historical data...
Loading historical data...

Documentation

Showing up to 5 results
|